Hopewell, New Jersey, United States (08525)
Lat: 40.39N, Lon: 74.76W
Wx Zone: NJZ015
Local Info
Past Weather Observations for Sunday, September 28, 2014

NOTE: This archive is for the closest National Weather Service station to Hopewell. Information may differ from the station used for current weather conditions.

Click here for Long-term Archive

Time Weather Temperature Dewpoint Humidity Pressure Winds Precip Visibility
23:53
Clear
59°F / 15°C 55°F / 13°C 88% 30.01 in
(1016 mb)
Calm - 10SM
22:53
Clear
61°F / 16°C 57°F / 14°C 88% 30.01 in
(1016 mb)
Calm - 10SM
21:53
Clear
61°F / 16°C 57°F / 14°C 88% 30.04 in
(1017 mb)
Calm - 9SM
20:53
Clear
63°F / 17°C 57°F / 14°C 83% 30.04 in
(1017 mb)
Calm - 10SM
19:53
Clear
64°F / 18°C 59°F / 15°C 83% 30.04 in
(1017 mb)
Calm - 10SM
18:53
Clear
64°F / 18°C 61°F / 16°C 88% 30.04 in
(1017 mb)
Calm - 10SM
17:53
Clear
66°F / 19°C 59°F / 15°C 78% 30.04 in
(1017 mb)
Calm - 10SM
16:53
Clear
79°F / 26°C 57°F / 14°C 48% 30.04 in
(1017 mb)
Calm - 10SM
15:53
Clear
84°F / 29°C 55°F / 13°C 37% 30.04 in
(1017 mb)
NW 4.6 mph
(NW 7 kph)
- 10SM
14:53
Clear
84°F / 29°C 54°F / 12°C 35% 30.04 in
(1017 mb)
WNW 3.5 mph
(WNW 6 kph)
- 10SM
13:53
Clear
86°F / 30°C 54°F / 12°C 33% 30.06 in
(1018 mb)
NW 6.9 mph
(NW 11 kph)
- 10SM
12:53
Clear
84°F / 29°C 54°F / 12°C 35% 30.06 in
(1018 mb)
Variable 3.5 mph
(Variable 6 kph)
- 10SM
11:53
Clear
82°F / 28°C 55°F / 13°C 40% 30.09 in
(1019 mb)
NNW 5.8 mph
(NNW 9 kph)
- 10SM
10:53
Clear
79°F / 26°C 55°F / 13°C 45% 30.12 in
(1020 mb)
Calm - 10SM
09:53
Clear
75°F / 24°C 57°F / 14°C 54% 30.15 in
(1021 mb)
Calm - 10SM
08:53
Clear
70°F / 21°C 57°F / 14°C 64% 30.15 in
(1021 mb)
Calm - 10SM
07:53
Clear
61°F / 16°C 55°F / 13°C 83% 30.18 in
(1022 mb)
Calm - 10SM
06:53
Clear
54°F / 12°C 50°F / 10°C 88% 30.18 in
(1022 mb)
Calm - 10SM
05:53
Clear
50°F / 10°C 46°F / 8°C 88% 30.18 in
(1022 mb)
Calm - 10SM
04:53
Clear
Fog And Mist
50°F / 10°C 48°F / 9°C 94% 30.15 in
(1021 mb)
Calm - 4SM
03:53
Clear
52°F / 11°C 48°F / 9°C 88% 30.18 in
(1022 mb)
Calm - 10SM
02:53
Clear
54°F / 12°C 52°F / 11°C 94% 30.15 in
(1021 mb)
Calm - 10SM
01:53
Clear
54°F / 12°C 50°F / 10°C 88% 30.15 in
(1021 mb)
Calm - 10SM
00:53
Clear
54°F / 12°C 52°F / 11°C 94% 30.18 in
(1022 mb)
Calm - 8SM
Time Weather Temperature Dewpoint Humidity Pressure Winds Precip Visibility


Weather for websites

WeatherForYou.com, LLC is not responsible for any damages or problems caused by this service. Current weather conditions are obtained from the closest station including government and personal stations which may have varying degrees of accuracy. Weather forecasts are derived from the NOAA NDFD. Like all things, this site belongs to Jesus Christ... He just trusts me to maintain it. If you have any questions or comments email webmaster@weatherforyou.com

Copyright © 2014, WeatherForYou.com LLC. All rights reserved.